Wind_Speed
26 26 26 26 25 26 27 27 26 25 24 21 19 19 20 21 21 19 17 17 18 19 18 17 16 17 16 15 15 15 16 16 16 16 16 16 15 15 15 15 15 14 13 12 11 10 10 9 8 9 10 10 11 12 12 12 12 11 11 12 13 13 14 15 15 15 15 15 15 15 14 14 14 15 16 16 16 17 17 17 17 16 16 15 15
27 26 26 25 26 27 28 28 27 25 23 23 22 21 21 21 21 20 19 19 19 19 19 18 18 17 17 16 16 16 16 16 16 17 16 16 15 15 16 15 15 14 13 12 12 11 11 10 9 10 11 11 11 12 12 12 12 12 12 13 13 14 14 14 14 15 15 15 16 15 15 16 15 16 16 16 17 17 17 18 17 17 17 17 17
27 26 27 27 28 28 29 29 29 26 22 23 24 22 21 20 19 20 20 21 21 21 20 20 19 18 18 18 18 18 18 17 17 17 17 17 17 17 17 16 15 15 15 14 13 13 13 12 11 12 13 13 12 12 13 13 13 13 14 15 15 15 15 15 15 15 16 16 16 16 16 17 17 17 17 17 17 18 18 19 19 19 19 18 18
27 26 28 29 29 30 33 32 27 22 20 22 22 20 19 19 19 19 20 22 22 22 21 20 20 21 20 20 19 19 19 18 18 18 18 19 19 18 18 18 17 17 17 16 15 15 15 14 13 13 14 15 15 15 15 15 16 16 16 17 17 16 17 17 16 16 16 17 17 17 17 18 18 18 19 19 19 20 20 21 21 21 21 20 20
27 28 29 31 33 32 32 29 21 17 20 21 20 20 20 21 20 20 21 23 22 21 21 21 22 22 21 20 20 20 20 19 18 19 19 20 20 20 19 19 19 19 18 18 18 18 17 17 16 15 16 18 18 18 17 17 17 18 19 19 19 19 19 18 18 17 18 18 19 19 19 19 21 21 21 22 22 23 23 24 24 24 24 23 22
30 30 27 26 27 25 25 23 19 19 19 19 19 21 23 23 22 22 22 22 21 20 20 20 21 20 19 19 19 20 20 19 19 20 21 21 22 21 21 21 21 20 19 19 20 21 21 20 19 19 19 20 20 19 18 18 19 20 20 21 21 21 20 20 20 19 19 20 20 21 21 22 22 23 24 24 25 26 27 27 27 26 27 26 25
31 30 27 24 23 22 22 24 23 21 20 20 20 21 23 24 22 21 21 20 19 18 18 17 17 17 17 18 19 20 20 19 20 21 22 23 23 23 23 23 23 22 21 21 22 23 23 23 22 22 21 22 22 21 20 21 21 22 22 23 23 22 22 22 22 22 22 22 22 23 24 24 24 25 26 27 28 29 29 29 29 29 29 30 29
30 29 26 25 26 26 26 26 25 22 21 22 21 21 22 23 23 22 21 20 19 18 17 16 16 16 17 17 18 19 19 19 21 22 23 24 25 25 25 25 25 25 24 24 24 24 25 25 24 24 24 24 24 24 23 23 24 24 24 25 25 25 24 24 24 24 24 24 25 25 26 27 27 28 29 29 30 31 31 31 31 31 31 31 31
31 29 27 26 27 27 27 28 27 25 22 21 21 23 23 23 23 23 22 21 21 20 20 18 17 17 18 18 18 18 19 20 22 23 24 25 26 26 26 26 26 26 26 26 26 25 26 26 25 25 25 25 25 26 26 26 27 27 27 27 27 27 27 27 26 26 26 26 27 28 29 29 30 31 31 32 32 32 32 32 32 33 33 33 32
32 30 28 27 27 28 28 28 29 28 26 23 23 24 25 24 24 24 24 24 23 23 23 22 21 21 21 21 20 20 21 22 24 25 26 27 28 28 28 27 27 27 27 27 27 26 27 27 26 26 27 27 27 28 29 29 29 29 28 28 28 28 28 28 28 28 27 28 29 30 31 31 32 32 32 33 33 34 34 34 34 35 35 36 35
33 31 29 28 27 27 28 28 29 30 29 27 25 26 27 27 25 25 26 27 27 26 26 25 24 25 25 24 23 23 23 24 26 26 27 29 30 30 30 29 29 28 28 28 27 27 27 27 27 28 29 29 30 30 31 31 31 30 30 30 30 30 30 30 30 29 29 30 31 32 32 33 33 33 34 34 34 35 35 36 36 37 38 38 39
35 33 32 30 28 27 27 27 29 30 29 28 27 26 28 28 27 27 28 28 28 28 27 27 27 27 27 27 26 25 24 25 26 26 27 28 30 31 32 31 30 30 29 29 29 29 28 28 28 29 30 31 32 32 32 32 32 32 32 31 31 31 31 31 31 31 32 32 32 34 34 34 35 35 35 36 36 36 37 38 38 39 40 41 41
38 36 34 33 31 28 26 26 28 30 31 30 28 27 27 28 28 28 28 29 29 28 28 28 27 28 29 30 29 27 24 24 25 25 26 27 28 30 31 31 30 30 30 30 30 30 29 29 29 30 31 32 33 33 33 33 33 33 33 33 33 33 33 34 34 34 34 34 34 35 36 36 37 36 37 38 38 39 39 40 41 41 42 43 44
40 39 36 35 33 31 29 28 28 29 30 30 29 28 28 29 28 28 28 30 31 31 31 30 29 30 32 33 33 29 25 24 25 26 26 26 27 28 28 29 30 30 30 31 30 30 29 29 30 31 31 32 32 33 33 33 33 34 34 34 34 35 36 36 36 36 37 37 37 38 38 38 38 38 39 40 40 41 41 42 43 44 45 45 46
39 39 37 37 36 34 31 29 29 31 31 30 29 28 28 29 28 28 29 31 32 34 34 33 33 33 34 36 36 31 27 26 26 27 27 27 27 28 28 29 30 30 30 30 30 30 29 29 29 30 30 31 31 32 33 34 34 35 35 36 37 38 38 38 38 39 40 41 41 41 41 41 41 41 42 42 42 43 44 45 46 47 47 48 48
37 36 36 36 36 34 32 31 30 31 31 29 28 28 28 29 29 28 29 31 32 33 33 33 33 33 33 37 36 32 29 28 27 28 28 29 29 30 30 30 30 29 28 28 29 29 29 29 29 30 30 31 32 33 34 35 36 37 37 38 39 39 39 40 41 41 43 44 44 44 44 43 43 43 44 44 45 46 47 48 49 49 50 51 51
36 35 34 35 35 34 33 32 31 30 29 28 27 27 28 28 28 28 28 29 30 31 31 32 32 31 31 34 34 32 31 30 29 28 28 29 29 30 31 31 30 29 28 28 28 29 30 31 31 32 32 32 33 35 36 37 38 39 39 40 40 41 42 43 43 44 45 46 46 46 45 45 45 46 47 48 49 50 51 51 51 51 52 53 53
36 35 34 34 35 35 34 33 32 30 29 28 27 28 28 27 28 29 28 26 26 26 27 28 29 30 31 33 34 32 32 31 30 29 28 29 30 30 31 31 30 30 30 30 30 31 32 33 33 33 34 35 36 36 38 39 40 41 42 42 42 43 44 45 46 46 47 48 48 48 48 47 47 48 49 50 50 50 52 54 53 53 54 54 53
34 36 37 37 38 38 36 33 31 29 29 28 27 27 27 25 25 26 25 23 23 23 24 25 26 26 30 34 35 33 32 32 32 31 30 30 30 31 31 32 32 32 32 33 34 35 35 35 36 36 36 37 38 38 39 41 42 43 44 45 45 46 47 48 49 50 50 50 50 50 50 50 49 50 51 52 52 55 58 59 57 57 58 58 56
30 34 36 36 37 36 33 32 30 29 29 28 26 25 25 24 24 25 25 25 25 26 27 28 28 27 29 33 34 33 33 33 34 34 34 33 33 33 33 33 33 34 35 36 37 38 39 39 39 39 39 39 40 41 42 43 44 45 46 47 48 49 49 50 51 53 54 54 54 55 55 56 55 55 56 57 59 61 61 60 60 62 63 63 61
21 23 24 26 29 29 28 29 29 28 27 27 26 26 26 26 26 26 26 27 27 27 28 28 29 29 30 32 33 34 35 36 36 37 36 36 35 34 34 35 35 36 38 39 40 42 43 42 40 40 41 42 43 44 44 45 45 46 47 49 50 50 51 52 53 54 55 56 57 58 59 61 62 61 61 62 62 61 60 61 64 66 65 62 61
20 20 20 21 23 24 25 26 27 27 27 26 26 27 28 28 27 26 26 26 26 26 27 27 27 29 31 33 35 36 37 38 39 39 38 37 36 35 36 37 38 39 40 42 42 44 45 44 41 41 43 44 45 45 46 46 47 47 48 50 51 52 53 54 55 56 57 58 60 61 61 63 63 63 65 65 63 62 64 67 67 65 63 61 60
25 26 25 25 25 25 26 27 27 28 28 27 27 28 29 30 29 28 28 28 28 28 27 27 27 27 29 32 34 36 38 38 39 38 38 37 37 37 38 39 40 41 42 42 43 44 45 44 42 42 44 44 45 46 47 47 48 49 50 52 53 54 55 56 57 59 60 61 62 63 63 64 65 67 69 69 67 68 69 67 63 61 62 64 63
27 28 28 28 27 28 28 29 29 29 29 29 30 31 31 31 31 31 30 30 31 31 31 31 30 30 30 32 34 35 36 37 37 37 37 38 39 40 41 42 42 42 42 43 43 44 43 42 42 44 45 45 46 48 49 50 51 53 55 57 58 58 59 59 60 61 61 62 63 64 65 66 68 70 72 72 72 72 71 67 64 65 68 70 70
29 30 30 30 29 29 29 30 30 31 31 32 33 33 33 34 34 34 34 33 33 34 34 35 35 35 35 35 36 37 37 38 39 40 42 43 44 45 46 47 47 46 46 45 45 45 45 46 47 49 50 50 52 53 54 54 56 58 59 61 61 61 61 61 62 63 64 65 67 68 69 70 71 72 73 74 75 76 75 74 74 75 76 75 74
30 31 32 32 32 31 31 30 31 32 33 34 34 34 34 35 35 36 36 36 36 36 36 37 37 37 38 38 39 39 40 40 41 43 45 46 47 48 48 49 50 51 50 50 49 50 51 52 53 54 54 55 55 56 56 57 58 59 60 61 62 62 62 63 64 65 66 67 69 70 71 72 73 74 75 76 76 78 79 79 78 78 78 77 74
32 32 34 34 33 32 31 31 31 31 32 34 36 36 36 36 36 35 35 35 36 36 37 37 38 39 40 40 40 41 41 41 42 44 45 46 47 47 48 49 50 51 52 52 52 54 55 55 54 55 55 55 55 56 56 57 58 59 60 61 62 63 65 66 68 69 70 71 72 74 74 75 76 76 76 76 76 78 79 78 76 76 76 75 74
34 34 34 35 34 34 34 33 33 34 34 36 37 38 39 39 38 37 37 37 38 39 39 40 40 41 42 42 43 44 44 43 45 47 48 48 49 50 50 51 52 53 53 53 54 55 55 55 55 56 56 57 58 58 59 60 61 62 64 65 67 68 69 71 72 73 74 75 75 76 76 77 77 77 78 78 78 78 79 78 77 76 76 75 75
36 35 35 36 36 36 36 36 37 38 39 39 39 40 40 40 40 40 39 40 40 41 41 42 42 43 43 44 44 45 45 45 47 48 49 50 51 51 51 52 52 52 53 53 54 55 55 56 57 58 59 61 62 63 64 65 67 68 69 70 71 72 73 74 75 76 77 77 77 77 77 77 78 77 77 77 77 77 77 77 75 74 74 73 73
36 36 36 36 37 38 38 38 39 39 40 41 41 41 41 41 41 40 40 40 40 40 41 41 42 42 43 43 44 45 45 45 46 47 48 48 49 50 51 51 52 53 54 54 55 57 58 59 60 62 63 64 65 67 68 69 70 71 72 73 73 74 74 75 75 76 75 75 74 74 74 73 73 72 72 71 70 70 70 68 66 66 66 65 64
33 34 34 35 35 36 36 36 36 37 38 38 39 39 39 39 40 40 40 39 39 39 40 41 41 42 42 43 43 44 45 45 46 47 48 48 49 51 52 53 54 55 57 58 59 60 61 63 64 65 66 67 69 70 71 72 72 73 73 73 74 73 73 73 72 71 71 70 69 68 67 67 66 65 64 64 63 63 62 60 58 58 57 57 55
32 32 33 33 34 34 34 34 34 34 34 35 35 36 36 37 38 39 39 40 40 40 41 41 42 43 43 44 45 46 46 47 48 49 50 51 52 54 55 56 58 59 60 61 63 64 65 66 67 68 69 70 71 71 72 72 72 72 72 71 71 70 69 69 68 66 65 65 64 63 62 62 61 60 59 58 58 57 56 54 54 53 52 51 50
34 34 34 34 35 35 35 35 35 35 35 35 35 35 36 37 38 39 40 40 41 42 43 44 45 45 46 47 48 49 50 50 51 52 53 54 55 56 58 59 60 61 62 63 64 65 66 67 68 69 69 70 70 70 70 69 69 68 67 66 66 65 64 64 63 62 62 61 60 59 58 58 57 56 55 55 54 53 52 52 51 51 51 50 49
36 36 36 37 37 37 37 37 37 37 37 37 38 38 38 39 40 41 42 43 44 45 46 47 48 49 50 50 51 52 53 53 54 55 56 57 58 59 59 60 61 62 63 64 65 65 66 66 66 66 66 66 65 65 64 63 63 62 62 61 61 60 60 60 59 58 57 56 56 55 54 54 54 53 53 53 53 53 53 52 51 51 51 51 50
39 39 39 40 40 40 41 41 41 41 41 41 42 42 43 43 44 45 45 46 47 48 49 50 51 51 52 53 54 54 55 55 56 57 57 58 59 59 60 61 62 62 63 63 63 63 62 62 61 60 60 59 59 59 58 58 58 57 57 56 55 54 54 53 53 52 52 52 52 52 52 53 53 54 54 54 54 55 54 54 54 53 52 52 51
41 41 41 42 42 42 43 43 44 44 44 45 45 45 46 46 47 47 48 48 49 49 50 51 52 52 53 53 53 54 54 55 55 56 56 57 57 57 58 58 58 58 58 57 57 56 56 55 55 55 55 55 55 55 54 54 53 52 51 51 50 50 49 49 50 50 50 51 52 53 54 54 55 56 57 57 57 57 57 56 56 55 54 53 52
42 41 41 41 41 41 42 42 43 43 43 44 44 45 45 45 46 46 47 47 48 48 49 50 50 51 51 51 52 52 52 52 52 52 52 52 52 52 52 52 52 51 51 51 51 51 51 52 52 52 52 52 51 51 50 49 49 48 48 48 48 48 48 49 49 50 51 52 53 54 56 56 57 58 58 58 58 57 56 55 54 53 53 52 51
42 42 41 40 39 39 39 40 40 41 42 42 43 43 43 44 44 45 45 45 46 46 46 46 47 47 47 48 48 48 48 48 48 48 48 48 47 47 47 47 47 48 48 48 48 48 48 48 48 48 47 46 46 45 45 45 45 45 46 46 47 47 48 49 50 51 52 53 54 55 56 56 56 56 55 54 53 51 50 48 47 45 45 45 44
40 40 39 39 38 37 37 37 37 38 38 39 39 40 40 41 41 41 42 42 42 42 42 42 42 42 42 43 43 43 43 43 43 44 44 44 44 44 44 44 44 44 45 45 44 44 44 43 43 42 42 42 42 42 42 43 43 44 45 46 46 48 49 49 50 51 51 51 50 50 50 49 50 50 49 48 46 44 40 37 35 34 33 33 32
37 37 37 37 36 36 36 36 36 36 36 36 36 36 37 37 38 38 39 39 39 40 40 40 40 40 40 40 40 40 40 40 40 40 41 40 40 40 40 40 40 40 40 39 39 38 38 38 38 38 39 39 39 40 41 42 43 44 45 46 46 47 48 48 48 46 45 43 42 42 43 44 43 42 39 36 33 30 27 25 25 24 23 23 24
37 37 37 36 36 36 36 36 36 36 36 36 36 36 36 37 37 37 38 38 38 38 39 39 39 39 39 39 39 39 39 38 38 38 37 37 36 36 36 36 36 35 35 34 34 34 35 35 36 37 37 38 39 40 41 42 43 44 45 45 45 46 45 43 40 37 35 35 35 37 38 35 30 25 21 20 18 17 17 17 18 18 19 21 23
39 38 38 37 37 37 36 36 37 36 36 36 36 36 36 37 37 37 37 37 38 38 38 38 38 37 37 37 37 36 36 35 34 33 33 33 32 32 32 32 31 31 31 31 32 33 34 35 37 38 39 39 40 40 41 41 42 42 42 43 42 40 36 32 29 28 29 30 31 31 28 23 17 13 11 10 10 11 12 14 16 18 20 21 22
41 40 39 39 39 38 38 38 37 37 37 37 37 37 37 37 37 37 36 36 36 36 36 35 35 34 34 33 33 32 31 31 30 30 30 29 29 29 29 29 29 30 30 31 33 34 36 38 39 39 38 38 37 37 37 37 37 38 38 37 34 29 25 24 24 25 26 26 26 24 21 18 18 18 15 11 11 11 12 13 16 18 21 22 22
40 40 39 39 39 38 38 38 37 37 37 37 36 36 36 36 35 35 34 34 34 33 32 32 31 30 30 29 29 28 28 27 27 27 27 27 27 27 27 28 29 30 32 34 35 37 38 38 37 36 35 34 33 32 32 33 34 34 33 29 24 20 20 21 22 23 24 24 24 22 19 17 19 22 21 18 15 15 15 15 16 18 20 21 21
37 37 37 37 37 37 36 36 36 36 36 35 35 34 34 33 32 32 31 30 30 29 29 28 28 27 27 26 26 26 26 26 25 25 25 25 26 26 27 29 31 33 35 36 37 37 37 35 33 32 31 30 28 28 29 30 30 30 27 23 19 19 20 21 22 23 23 24 23 22 20 17 17 19 21 21 18 16 15 16 17 18 19 19 18
34 34 34 34 34 34 34 34 34 34 33 33 32 31 30 30 29 28 27 27 27 27 26 26 26 25 25 25 25 25 24 24 24 24 24 25 26 28 29 31 34 36 37 37 37 35 33 31 30 29 28 26 25 25 26 27 26 26 24 21 20 20 21 22 22 23 24 24 23 22 21 19 18 18 18 19 19 19 19 19 20 20 19 18 17
32 32 32 32 32 32 32 32 31 31 30 30 29 28 28 27 26 26 25 25 25 25 24 24 24 24 24 24 24 23 23 23 23 23 25 26 28 29 31 34 36 37 37 36 34 32 29 28 28 27 26 24 24 24 24 24 24 23 23 21 21 21 22 22 22 22 23 23 22 20 18 18 18 19 18 16 17 19 21 20 19 18 17 17 17
28 29 29 30 30 30 30 30 29 29 28 27 27 26 26 25 25 24 24 23 23 23 23 23 23 23 23 23 22 22 22 22 23 24 26 27 29 31 33 35 36 36 35 33 31 28 27 26 26 25 24 24 24 24 24 23 23 23 23 22 21 21 21 21 21 21 21 21 20 18 16 14 14 15 16 15 15 16 17 17 17 17 17 17 18
25 26 27 27 27 28 28 28 27 27 26 26 25 24 24 24 23 23 22 22 22 22 22 22 22 22 21 21 21 21 21 23 24 25 26 28 30 33 35 35 34 33 31 29 27 26 25 25 25 24 23 23 24 24 24 24 24 24 24 24 22 21 20 20 19 19 20 20 20 17 15 13 12 11 12 14 14 15 16 16 17 17 17 17 16
24 24 25 25 25 25 26 26 26 26 25 24 23 23 22 22 22 21 21 21 21 21 21 21 21 20 20 20 21 21 22 23 24 25 27 29 31 34 34 33 31 29 27 26 25 24 24 24 24 24 23 24 24 25 25 25 25 25 25 24 23 22 20 19 18 18 19 20 20 18 14 13 13 11 11 12 13 14 15 15 14 14 13 12 12
23 23 23 23 23 24 24 24 25 24 23 23 22 22 21 21 21 21 21 21 20 20 20 20 20 20 20 20 21 21 22 23 24 25 27 30 32 32 31 29 28 26 25 24 23 23 23 23 23 23 23 24 25 25 26 26 26 26 25 24 23 22 20 18 17 17 18 18 19 18 16 13 12 12 13 13 13 12 11 11 10 10 9 10 10
Wind_Direction
259 257 260 256 248 243 242 240 235 232 237 240 241 239 233 230 230 230 231 233 233 236 242 247 247 248 253 257 255 254 252 249 247 247 248 248 248 248 249 251 251 250 248 248 246 240 239 244 249 257 263 267 272 275 275 275 275 277 281 284 289 293 295 299 300 298 298 298 298 302 305 306 307 306 306 306 306 305 304 303 302 300 300 300 300
256 257 257 254 250 243 236 234 230 227 229 232 232 232 229 227 227 224 224 231 238 240 245 249 248 247 249 249 251 252 249 243 241 243 245 245 245 245 246 247 247 246 244 243 241 237 240 247 253 262 267 269 272 273 272 273 274 278 282 285 289 292 294 296 297 296 296 296 296 298 299 299 298 298 299 299 300 300 299 299 297 297 297 297 296
254 256 254 253 248 238 235 235 227 221 226 231 231 232 229 227 226 224 225 231 237 241 244 245 244 243 242 242 246 246 240 236 237 239 241 243 244 244 244 245 245 245 244 243 244 244 247 249 253 261 268 270 272 272 273 276 278 280 282 284 286 287 289 290 289 289 288 287 287 288 290 291 291 292 292 293 293 293 293 293 292 292 292 292 291
254 256 254 252 246 238 235 229 217 217 234 237 235 235 231 227 225 228 233 235 237 239 242 242 243 243 241 241 242 238 232 232 234 237 240 242 244 244 244 245 245 245 245 245 246 248 251 253 255 259 264 268 269 270 273 275 278 280 280 281 282 282 282 283 281 279 278 278 279 280 283 285 285 285 286 286 287 287 288 288 288 288 288 288 286
254 256 255 251 246 237 225 213 209 232 245 242 241 238 231 228 229 232 236 237 237 238 238 240 243 245 244 242 239 232 228 229 232 237 240 243 244 245 245 246 246 246 247 248 249 250 252 254 256 257 260 263 264 266 268 270 272 275 276 277 276 276 276 277 276 274 273 273 275 277 278 279 281 282 283 284 285 285 285 285 285 286 285 285 283
248 251 252 245 236 223 212 215 232 246 243 241 245 239 231 230 232 234 237 236 237 239 241 243 247 247 244 238 230 224 224 228 234 238 241 243 245 246 247 249 249 248 250 252 253 253 254 255 256 256 257 260 262 262 263 265 267 269 272 273 273 273 273 273 273 272 271 271 273 275 276 276 278 280 281 283 284 284 284 284 284 284 283 282 281
245 245 246 241 233 229 231 239 244 245 243 244 243 235 231 232 236 239 238 236 237 241 245 248 248 243 234 226 222 220 223 229 236 241 243 245 245 245 247 248 249 248 249 251 253 255 256 257 256 255 255 257 261 262 262 263 265 267 269 270 272 272 271 271 272 273 273 273 274 276 277 278 278 279 281 281 281 282 282 283 284 283 282 282 281
245 246 245 240 238 240 241 242 244 247 249 247 243 237 233 234 239 240 237 236 238 241 244 246 242 233 224 220 220 223 227 234 241 244 246 246 246 245 245 246 247 247 246 248 250 252 254 255 255 254 254 255 258 261 263 263 263 264 266 268 270 272 272 272 273 274 275 276 277 278 279 279 279 279 280 280 280 280 281 282 283 282 281 280 279
244 247 248 242 238 239 241 245 249 249 248 246 244 241 237 237 239 238 237 238 239 242 245 244 238 230 225 224 227 232 237 241 244 247 249 249 249 247 246 246 247 247 247 248 249 250 251 253 253 254 255 256 257 259 261 261 261 262 263 266 268 271 272 273 273 274 276 277 277 278 277 277 277 278 279 280 280 280 280 281 282 281 281 279 277
245 246 249 247 244 244 245 247 250 249 248 247 245 240 239 240 239 239 239 239 240 243 245 245 241 236 233 234 237 240 243 247 249 250 251 252 252 251 249 249 249 249 250 251 251 252 252 253 254 255 257 258 259 260 260 261 261 262 263 265 267 269 270 271 272 274 275 276 276 277 278 278 278 278 279 280 281 282 283 283 283 283 282 282 281
244 245 248 249 248 248 248 248 250 250 248 247 247 244 239 239 241 242 241 239 240 242 244 245 245 242 241 242 242 243 247 251 252 252 251 251 252 252 252 251 251 252 253 254 255 256 257 257 257 257 258 260 260 260 260 261 262 263 264 265 266 268 269 269 271 272 272 273 274 276 277 278 279 280 280 281 282 284 285 286 286 286 285 284 284
239 241 242 244 246 247 247 248 249 249 248 248 248 244 239 240 244 244 241 240 240 239 240 243 245 245 245 245 244 246 250 255 256 255 253 252 251 251 251 252 253 255 256 258 259 259 259 259 258 258 260 261 262 262 262 262 263 264 265 266 267 268 269 269 269 269 270 271 273 275 276 277 278 279 281 282 283 284 285 286 286 286 286 286 286
233 236 238 240 242 244 245 246 247 247 248 247 244 242 242 243 244 244 244 244 244 242 241 242 244 245 246 246 244 246 253 258 259 258 257 255 253 250 249 250 252 255 258 260 260 259 258 258 259 260 262 263 264 264 264 265 265 266 267 268 269 269 269 269 268 268 269 270 271 273 274 276 276 278 279 280 281 282 283 284 284 285 285 285 285
231 233 237 239 239 242 244 246 246 246 247 245 243 245 246 245 244 245 248 249 249 248 247 247 249 247 246 246 245 246 252 257 257 256 256 255 254 251 248 249 251 254 258 259 260 259 259 259 261 262 263 265 267 268 269 269 269 268 268 269 269 269 269 268 268 268 269 269 269 269 271 273 274 275 276 277 278 279 280 281 282 283 283 284 285
227 228 233 236 238 241 244 244 243 243 243 243 245 248 250 249 247 248 252 255 253 251 250 251 255 255 250 246 243 245 250 254 254 254 253 252 251 250 248 250 254 257 259 259 259 260 261 263 265 266 268 270 271 271 271 271 270 269 269 269 269 269 269 268 268 269 269 270 269 269 269 271 272 274 275 276 277 277 278 279 280 280 282 283 283
221 226 231 234 237 240 241 241 241 241 241 242 246 248 249 250 251 251 254 256 256 254 253 253 257 258 252 243 240 242 247 251 252 251 250 249 249 250 251 254 257 259 258 258 259 261 263 265 268 270 273 274 274 272 271 271 271 270 270 270 270 270 269 269 269 269 269 269 269 270 271 272 274 275 276 277 278 278 278 279 280 281 282 283 283
223 228 231 233 236 238 238 238 237 237 238 240 242 243 245 250 253 252 252 254 256 257 255 254 256 257 251 241 237 239 244 249 251 250 249 248 248 251 253 255 256 255 255 256 258 260 263 265 267 270 271 272 271 270 271 271 270 270 270 270 270 270 269 269 270 270 271 271 272 273 273 274 275 276 277 277 277 277 278 279 280 282 282 283 285
225 229 234 236 237 237 236 234 234 234 235 236 238 241 247 252 251 247 248 251 253 254 252 251 254 256 248 238 233 236 243 249 252 252 251 250 250 251 252 252 252 253 256 258 260 262 265 266 268 269 269 269 269 269 270 270 270 270 270 270 270 270 270 270 271 272 272 273 274 273 273 273 274 277 278 278 278 280 281 281 281 281 282 284 286
224 229 233 233 232 232 231 228 229 232 232 233 236 242 248 250 246 245 247 249 251 253 253 254 257 256 244 234 232 237 244 250 254 255 254 253 252 252 252 252 253 256 260 263 265 267 267 268 269 270 269 268 268 268 269 269 270 270 270 270 270 270 271 272 273 273 273 274 274 274 275 276 276 279 281 282 283 286 286 283 282 282 284 285 285
224 230 231 228 224 223 222 220 222 226 228 231 238 245 248 249 248 249 252 253 254 255 256 257 257 253 244 235 234 239 245 250 255 256 255 253 253 253 253 254 257 260 264 266 268 269 270 271 272 271 270 268 268 268 269 269 270 271 272 273 274 274 275 276 277 277 277 277 276 276 277 277 278 280 282 283 285 287 285 282 283 286 288 288 287
213 218 221 219 215 213 214 217 220 226 231 236 243 247 249 249 251 252 253 255 255 254 255 255 252 249 246 243 243 246 249 251 253 253 253 253 253 255 256 258 262 265 268 269 270 270 270 270 269 268 267 267 268 269 270 271 273 274 275 276 277 277 277 278 278 279 279 279 278 276 275 275 277 280 282 284 286 286 283 283 286 288 288 288 287
227 225 224 222 219 218 221 223 226 232 237 241 245 248 247 246 247 249 251 252 252 252 252 252 250 249 249 249 250 251 252 252 251 250 251 253 255 257 260 263 266 268 270 270 270 270 271 271 268 266 266 267 268 269 271 272 274 275 276 277 278 277 278 278 278 278 279 279 279 278 277 277 278 280 282 284 286 285 283 284 287 287 285 284 283
248 245 242 239 236 234 234 234 235 237 239 238 241 245 247 246 246 247 248 247 247 247 247 248 250 251 252 253 253 252 252 251 250 250 251 254 257 261 264 266 268 269 270 271 271 272 273 273 271 268 268 270 271 272 273 275 276 277 278 279 279 279 279 279 279 279 279 279 279 279 279 278 279 281 282 282 282 281 281 282 281 280 280 281 281
254 252 248 245 242 240 240 240 240 242 241 239 239 242 245 246 246 247 246 244 245 246 247 250 254 255 256 257 257 256 254 253 253 254 257 260 264 267 268 268 268 268 269 269 270 272 274 274 272 271 271 273 273 274 275 276 277 277 278 278 278 278 278 278 278 278 278 279 279 279 278 278 279 280 280 280 279 278 278 277 276 277 280 282 283
255 254 251 247 243 242 242 243 244 245 245 245 244 244 244 243 243 245 245 246 248 251 253 256 259 260 261 262 262 263 262 262 262 262 264 266 268 269 269 268 268 269 269 269 270 272 274 276 276 276 278 278 277 277 277 276 275 275 276 276 277 277 277 278 277 277 277 277 277 277 277 277 277 277 277 278 278 278 277 276 276 277 279 281 282
255 254 252 249 245 243 242 242 244 245 247 248 248 247 247 245 245 246 248 249 252 254 257 259 261 262 264 265 267 268 269 270 271 270 269 269 269 268 268 268 269 270 271 272 274 276 277 278 279 279 279 279 278 278 277 276 275 275 276 277 278 279 280 280 279 278 278 277 277 277 277 276 276 276 276 276 276 276 276 276 276 277 278 279 280
255 254 253 251 247 244 243 242 243 244 245 247 247 247 247 247 247 248 250 253 255 258 260 262 263 264 265 266 267 268 269 270 271 270 269 270 270 269 270 271 271 273 274 275 277 278 279 280 281 281 280 280 280 279 279 279 279 279 279 280 281 281 281 281 280 280 279 279 279 279 279 278 278 278 277 277 277 277 277 277 278 278 279 279 279
254 253 251 248 244 242 242 243 243 242 243 245 247 248 249 250 251 252 254 256 258 260 262 263 264 265 266 266 266 267 267 267 267 268 269 271 272 273 274 275 276 277 278 279 279 280 281 281 282 282 282 282 282 282 282 281 281 281 281 281 281 281 280 280 279 279 279 279 279 278 278 278 278 278 278 279 278 278 279 279 279 279 279 279 279
253 252 249 245 241 239 241 244 245 245 245 247 248 249 251 253 256 257 259 260 262 263 264 266 266 267 268 268 268 268 267 267 267 268 270 271 272 274 275 276 277 278 279 280 280 280 280 280 280 280 281 281 281 282 282 282 282 281 281 281 281 280 280 279 279 279 279 279 279 279 279 279 279 279 279 279 279 278 278 279 279 279 279 278 279
247 247 246 244 242 241 242 243 244 245 247 248 249 250 252 254 257 260 262 264 265 266 268 269 270 270 270 270 270 270 270 270 270 271 272 273 274 275 276 276 277 278 278 279 279 279 279 279 279 280 280 281 281 281 281 281 281 281 281 281 280 280 280 280 280 280 280 280 280 280 280 279 279 279 279 279 279 278 279 279 279 279 278 279 279
246 246 245 245 246 246 246 247 247 248 249 250 252 253 255 257 259 262 264 266 267 268 269 269 270 270 271 271 271 272 272 272 273 273 274 274 275 276 276 277 277 278 279 279 279 280 280 280 281 281 281 281 281 281 282 282 282 281 282 282 282 282 282 282 282 282 282 282 281 281 281 281 281 281 280 280 280 279 280 280 279 279 279 280 280
254 253 252 252 253 253 253 254 254 254 255 256 256 258 259 260 261 263 264 266 267 267 268 268 269 269 270 270 271 272 272 273 273 274 275 275 276 277 278 278 279 279 280 281 281 281 282 282 282 282 282 282 283 283 283 283 283 283 283 283 284 284 284 284 284 284 284 284 283 283 283 282 282 282 281 281 280 280 280 279 279 279 279 278 279
257 258 258 259 259 259 259 259 259 259 259 259 260 260 261 262 263 263 264 265 266 266 267 268 268 269 270 271 272 273 274 275 276 277 277 278 279 280 280 281 281 282 282 283 283 284 284 284 284 284 283 283 283 283 284 284 284 284 284 284 284 284 284 285 285 285 284 284 284 284 283 283 282 282 281 281 280 279 279 278 277 277 277 277 277
258 258 259 260 260 261 261 262 262 262 263 263 263 263 264 264 265 265 266 267 268 268 269 270 271 272 273 275 276 276 277 278 279 279 280 281 282 282 283 283 283 284 284 284 284 284 284 284 284 284 284 284 284 284 284 284 285 285 285 285 285 285 285 285 285 285 285 285 285 284 284 283 283 282 281 280 280 279 279 278 277 276 276 275 275
260 260 261 261 262 262 262 263 263 264 264 264 265 266 266 267 268 269 270 271 271 272 273 274 274 275 276 276 277 278 278 279 280 280 281 281 282 282 282 282 282 282 282 283 283 283 283 284 284 284 285 285 285 286 286 286 286 286 286 286 286 286 286 286 286 286 286 285 285 284 284 283 282 282 281 280 280 279 279 278 277 276 275 275 274
262 261 261 261 262 263 263 263 264 264 265 265 266 266 267 268 269 270 271 272 273 274 274 275 275 276 276 277 277 278 278 279 279 280 280 280 281 281 281 282 282 282 283 283 284 284 285 285 285 286 286 286 286 286 286 286 286 286 286 286 286 286 286 286 286 286 285 285 284 284 283 283 282 282 281 281 280 279 279 278 277 276 275 274 273
264 263 263 262 262 262 262 263 263 264 265 265 266 266 267 268 268 269 270 271 272 272 273 274 274 275 275 276 276 277 278 278 279 280 280 281 282 282 282 283 283 284 284 285 285 285 286 286 286 286 286 286 286 286 287 287 287 287 287 287 287 287 287 287 287 286 286 286 285 285 284 284 283 282 282 281 280 279 278 277 276 275 274 273 272
265 266 266 265 264 263 262 262 262 262 263 263 264 264 265 265 266 267 268 268 269 270 271 272 273 274 274 275 276 277 277 278 279 280 281 281 282 282 283 284 284 284 285 285 285 285 285 285 285 286 286 286 287 287 288 288 289 289 289 289 289 289 289 288 288 288 288 287 287 286 286 286 285 284 283 282 281 280 279 278 277 275 273 271 269
264 265 265 266 266 265 264 264 264 263 263 264 264 264 265 265 265 266 267 267 268 269 270 271 272 273 274 275 276 277 277 278 279 280 280 281 281 282 282 282 283 283 283 283 283 283 284 285 285 286 287 288 288 289 290 290 290 291 291 291 291 290 289 289 290 290 290 290 290 291 291 290 289 288 286 285 283 280 278 275 272 269 266 264 262
263 264 264 264 265 265 264 264 265 265 265 266 266 267 267 268 268 269 269 270 271 271 271 272 273 274 274 275 275 276 277 277 278 278 278 279 279 279 280 280 280 281 282 283 284 284 285 286 287 288 289 290 291 292 292 293 292 292 292 292 291 291 291 291 292 292 294 295 296 297 296 294 293 291 288 285 282 277 271 266 264 260 256 251 249
263 263 263 263 263 264 264 264 265 265 266 267 268 268 269 270 271 271 272 272 272 273 273 273 273 274 274 274 274 275 275 275 276 276 277 278 278 279 280 281 281 283 284 285 286 287 288 289 290 291 292 293 294 294 295 294 294 294 294 293 293 293 293 294 294 296 299 301 302 302 300 296 293 291 286 279 271 263 255 252 252 249 243 241 241
261 261 261 261 261 261 262 263 263 264 265 266 266 267 268 268 269 269 270 270 270 271 271 271 271 271 271 272 272 273 273 274 275 276 278 279 280 281 282 283 284 285 286 288 289 290 292 293 294 295 296 296 297 297 296 296 296 297 297 296 295 295 294 295 296 299 303 305 307 308 304 292 279 276 276 263 249 240 232 230 233 236 237 239 243
256 256 256 257 258 258 258 259 260 261 261 262 263 263 264 264 265 265 266 266 267 267 267 268 268 269 269 270 271 272 274 276 278 279 280 282 283 284 284 285 287 289 290 292 294 295 296 297 298 298 299 299 299 298 298 299 300 301 300 299 297 295 295 296 297 301 305 307 308 311 306 289 273 274 277 265 247 242 240 234 232 235 241 245 248
252 252 252 252 253 253 254 254 255 256 257 258 258 259 259 260 260 261 261 262 263 264 265 266 267 268 269 271 273 275 276 278 279 281 282 283 284 285 286 288 291 293 295 296 297 298 299 299 300 300 300 300 299 299 300 302 305 306 304 300 296 293 294 296 299 303 307 307 305 303 300 290 280 279 280 274 261 255 255 251 245 243 246 248 248
249 249 248 248 249 249 249 250 250 251 252 253 254 254 255 256 257 258 259 261 262 264 265 266 268 269 271 273 274 276 277 279 280 281 282 283 284 286 289 291 294 296 297 298 299 300 300 300 299 300 300 300 299 300 304 309 313 314 310 302 295 293 295 298 302 305 307 307 304 299 296 292 284 280 280 278 271 264 262 261 257 253 250 247 245
248 247 246 246 246 246 247 247 247 248 249 250 251 252 253 255 257 258 260 262 263 265 266 267 268 270 271 273 274 276 277 279 280 280 281 283 286 289 292 294 296 298 299 300 300 300 299 299 299 299 299 298 298 301 307 313 320 322 318 307 298 294 295 298 302 305 306 305 301 296 293 291 287 282 280 276 269 264 264 264 259 254 249 246 245
246 246 245 245 245 246 246 246 247 248 249 250 251 252 254 256 257 259 260 261 263 264 265 266 268 269 271 273 274 276 277 278 279 280 283 286 289 292 294 297 299 300 300 300 299 299 298 297 297 297 296 295 295 299 305 313 320 325 324 315 303 294 290 292 296 302 305 306 302 294 288 285 282 281 281 277 266 259 259 259 256 253 249 244 242
246 246 246 245 245 246 246 246 247 248 249 250 251 253 255 256 258 259 259 260 261 262 264 265 267 269 271 272 273 274 276 277 280 282 286 289 292 295 297 299 300 300 300 298 297 296 296 295 295 293 292 291 292 295 301 308 315 322 324 321 312 299 291 288 290 297 305 310 308 298 286 281 278 276 277 277 271 262 258 256 254 252 249 244 242
246 246 246 246 246 246 247 247 247 248 249 250 251 253 254 256 257 257 257 257 258 259 261 263 265 267 268 270 271 273 276 279 282 285 288 291 295 297 300 301 301 299 298 297 296 294 293 292 291 290 288 287 288 291 295 301 307 313 318 320 318 311 299 289 285 290 300 310 312 303 286 274 271 269 266 267 265 259 254 251 249 246 245 244 243
249 248 247 247 247 247 247 248 248 249 249 250 251 252 252 254 254 254 254 254 255 256 258 260 262 263 265 267 270 273 277 281 285 288 292 295 299 301 302 301 300 298 297 296 294 291 290 289 288 288 286 284 285 287 290 294 299 305 310 314 317 316 309 297 285 284 291 303 312 313 297 275 263 260 260 262 261 254 247 245 242 238 236 238 241
253 251 249 248 248 247 248 248 248 249 249 249 249 249 249 249 249 249 249 250 251 253 255 257 258 260 263 267 271 276 281 284 288 292 297 300 302 303 302 301 299 298 297 295 292 289 287 286 286 286 285 284 284 285 287 290 294 299 305 310 312 313 311 304 292 284 285 293 305 316 314 293 269 257 255 258 261 260 256 252 246 238 235 239 243
Height
5751 5752 5753 5753 5753 5754 5755 5757 5758 5758 5759 5760 5761 5761 5762 5763 5764 5766 5768 5770 5771 5773 5774 5775 5776 5776 5777 5777 5778 5779 5780 5781 5782 5783 5784 5785 5785 5786 5787 5788 5789 5790 5791 5792 5792 5792 5792 5793 5793 5793 5793 5793 5794 5794 5795 5795 5795 5795 5795 5795 5795 5794 5794 5794 5794 5794 5793 5793 5793 5793 5792 5792 5792 5791 5791 5791 5791 5790 5790 5790 5790 5789 5789 5789 5788
5748 5749 5750 5750 5751 5751 5752 5753 5754 5755 5756 5758 5758 5759 5760 5761 5763 5765 5767 5768 5769 5770 5772 5772 5773 5774 5775 5775 5776 5776 5777 5778 5779 5781 5782 5783 5784 5785 5786 5787 5788 5788 5789 5790 5790 5791 5791 5791 5792 5792 5792 5792 5792 5793 5793 5794 5794 5794 5794 5793 5793 5793 5792 5792 5792 5792 5792 5792 5791 5791 5791 5790 5790 5790 5790 5790 5789 5789 5789 5788 5788 5788 5787 5787 5787
5746 5746 5747 5747 5748 5749 5749 5750 5751 5753 5754 5756 5757 5757 5758 5760 5762 5763 5765 5766 5767 5768 5769 5770 5771 5771 5772 5773 5773 5774 5775 5776 5777 5778 5780 5781 5782 5783 5784 5785 5786 5786 5787 5788 5788 5789 5789 5790 5790 5790 5790 5790 5791 5792 5792 5792 5792 5792 5792 5792 5791 5791 5790 5790 5791 5790 5790 5790 5789 5789 5789 5789 5788 5788 5788 5788 5788 5788 5787 5787 5786 5786 5786 5785 5785
5744 5743 5744 5744 5745 5746 5746 5746 5749 5752 5754 5755 5756 5757 5758 5759 5760 5762 5763 5764 5765 5766 5767 5767 5768 5768 5769 5770 5771 5772 5772 5773 5775 5776 5777 5778 5779 5780 5781 5782 5783 5784 5785 5785 5786 5787 5787 5788 5788 5788 5788 5788 5789 5789 5789 5790 5790 5790 5790 5790 5789 5789 5789 5789 5789 5788 5788 5788 5787 5787 5787 5787 5786 5786 5786 5786 5786 5786 5785 5785 5785 5784 5784 5784 5783
5742 5741 5742 5742 5743 5744 5744 5744 5747 5750 5753 5754 5755 5756 5757 5758 5759 5760 5761 5762 5762 5763 5763 5764 5764 5765 5766 5767 5768 5769 5770 5771 5773 5774 5775 5776 5777 5778 5779 5779 5780 5781 5782 5783 5784 5784 5785 5786 5786 5786 5786 5786 5786 5787 5787 5787 5787 5787 5787 5787 5787 5787 5786 5786 5786 5786 5786 5785 5785 5785 5785 5784 5784 5784 5783 5783 5783 5783 5783 5782 5782 5782 5782 5782 5782
5738 5739 5741 5741 5741 5742 5743 5744 5746 5748 5750 5751 5752 5754 5755 5756 5757 5757 5758 5759 5759 5759 5760 5761 5761 5762 5763 5764 5765 5767 5768 5770 5771 5772 5773 5774 5774 5775 5776 5777 5778 5778 5779 5780 5780 5781 5782 5783 5784 5784 5784 5783 5783 5783 5784 5784 5784 5784 5784 5784 5784 5784 5784 5784 5784 5784 5783 5783 5783 5782 5782 5782 5782 5781 5781 5780 5780 5780 5780 5780 5779 5779 5779 5779 5779
5733 5735 5738 5740 5740 5741 5743 5744 5745 5746 5747 5748 5749 5751 5753 5754 5755 5755 5755 5755 5756 5756 5757 5758 5759 5760 5760 5762 5763 5765 5766 5768 5769 5770 5771 5771 5772 5773 5773 5774 5774 5775 5776 5777 5777 5778 5779 5780 5781 5781 5782 5781 5780 5780 5781 5781 5781 5781 5781 5781 5781 5781 5782 5781 5781 5781 5781 5780 5780 5780 5780 5779 5779 5778 5778 5778 5778 5777 5777 5777 5777 5777 5776 5776 5775
5729 5730 5733 5736 5738 5739 5741 5742 5743 5745 5746 5746 5748 5749 5750 5751 5752 5752 5753 5753 5753 5754 5755 5756 5757 5758 5759 5760 5762 5763 5764 5766 5767 5768 5768 5769 5769 5770 5771 5771 5771 5772 5773 5773 5774 5775 5775 5776 5777 5777 5778 5778 5778 5777 5777 5778 5778 5778 5778 5778 5778 5778 5778 5778 5778 5778 5778 5778 5777 5777 5777 5776 5776 5775 5775 5775 5775 5774 5774 5774 5774 5773 5773 5772 5772
5725 5725 5728 5732 5734 5737 5739 5739 5741 5742 5743 5744 5745 5746 5747 5748 5749 5749 5750 5750 5751 5752 5753 5754 5755 5756 5757 5758 5759 5761 5762 5763 5764 5765 5766 5766 5767 5767 5768 5768 5769 5769 5770 5771 5771 5772 5772 5773 5773 5774 5774 5775 5775 5775 5774 5774 5775 5775 5775 5775 5775 5775 5775 5775 5775 5775 5776 5776 5775 5774 5774 5774 5773 5773 5772 5772 5771 5771 5771 5771 5770 5769 5769 5768 5768
5722 5722 5725 5728 5731 5734 5735 5736 5737 5739 5740 5741 5742 5743 5744 5745 5745 5746 5747 5748 5749 5750 5751 5752 5753 5754 5755 5756 5757 5758 5759 5761 5762 5763 5763 5764 5764 5765 5765 5766 5766 5767 5768 5768 5769 5769 5770 5770 5771 5771 5771 5771 5771 5772 5772 5772 5772 5772 5772 5772 5772 5773 5773 5773 5773 5773 5773 5773 5773 5772 5771 5771 5771 5770 5769 5769 5768 5767 5767 5767 5766 5766 5765 5765 5764
5719 5720 5722 5725 5728 5730 5731 5732 5733 5735 5736 5738 5739 5740 5740 5741 5742 5743 5744 5745 5746 5747 5748 5749 5750 5752 5753 5754 5755 5755 5757 5758 5758 5759 5760 5761 5761 5762 5762 5763 5763 5764 5765 5765 5766 5767 5767 5767 5768 5768 5768 5768 5768 5768 5769 5769 5769 5769 5769 5769 5769 5770 5770 5770 5770 5770 5770 5770 5769 5769 5768 5768 5767 5766 5766 5765 5764 5763 5763 5762 5762 5761 5761 5761 5760
5718 5719 5720 5722 5725 5727 5728 5729 5730 5731 5733 5734 5735 5736 5737 5738 5739 5740 5741 5743 5744 5745 5746 5746 5747 5749 5750 5751 5752 5753 5754 5755 5755 5756 5757 5758 5758 5758 5759 5759 5760 5761 5762 5762 5763 5763 5763 5764 5764 5764 5764 5765 5765 5765 5765 5765 5766 5766 5766 5766 5766 5766 5767 5767 5767 5767 5766 5766 5765 5765 5764 5763 5762 5762 5761 5760 5760 5759 5758 5758 5758 5757 5756 5756 5755
5716 5717 5718 5720 5722 5725 5726 5727 5728 5729 5730 5731 5732 5733 5734 5735 5736 5737 5739 5740 5741 5742 5743 5744 5745 5746 5747 5747 5748 5750 5751 5751 5752 5752 5753 5754 5754 5755 5755 5756 5757 5757 5758 5759 5759 5760 5760 5760 5760 5760 5761 5761 5761 5761 5762 5762 5762 5762 5762 5762 5763 5763 5763 5763 5763 5762 5762 5761 5761 5760 5759 5758 5758 5758 5757 5756 5755 5755 5754 5753 5752 5752 5752 5751 5750
5712 5714 5716 5718 5720 5722 5723 5724 5725 5726 5727 5728 5729 5730 5731 5732 5733 5734 5735 5736 5738 5739 5739 5741 5742 5743 5743 5744 5745 5746 5747 5748 5748 5748 5749 5750 5751 5751 5752 5753 5754 5754 5755 5755 5755 5756 5756 5756 5757 5757 5757 5757 5757 5758 5758 5758 5758 5758 5758 5758 5759 5759 5758 5758 5758 5757 5757 5756 5756 5755 5755 5754 5753 5753 5753 5752 5751 5750 5749 5748 5747 5747 5746 5746 5745
5710 5712 5714 5715 5717 5719 5720 5721 5722 5723 5724 5725 5726 5727 5728 5728 5730 5731 5732 5733 5734 5735 5736 5737 5738 5739 5740 5740 5741 5743 5744 5744 5745 5745 5745 5746 5747 5748 5749 5749 5750 5751 5751 5751 5752 5752 5752 5753 5753 5753 5753 5753 5754 5754 5754 5754 5754 5754 5754 5754 5754 5754 5754 5753 5753 5752 5751 5750 5750 5749 5749 5749 5749 5748 5747 5747 5746 5746 5744 5743 5742 5741 5741 5741 5740
5707 5709 5711 5712 5714 5715 5717 5718 5719 5720 5721 5722 5723 5724 5724 5725 5726 5728 5729 5729 5730 5731 5732 5733 5734 5735 5736 5736 5737 5739 5741 5741 5741 5742 5742 5743 5743 5744 5745 5745 5746 5747 5747 5747 5748 5748 5749 5749 5749 5749 5749 5750 5750 5750 5750 5750 5750 5750 5750 5749 5749 5749 5749 5748 5747 5746 5745 5744 5743 5744 5744 5744 5744 5743 5742 5741 5741 5740 5739 5737 5737 5736 5735 5734 5734
5704 5706 5708 5710 5711 5712 5714 5715 5716 5717 5718 5719 5720 5720 5721 5722 5723 5724 5725 5726 5726 5727 5728 5729 5730 5731 5731 5732 5734 5736 5737 5737 5738 5738 5739 5739 5740 5740 5741 5741 5742 5742 5742 5743 5743 5744 5744 5744 5744 5745 5745 5746 5746 5745 5745 5745 5745 5745 5745 5744 5745 5744 5744 5743 5742 5741 5739 5739 5739 5739 5739 5739 5738 5737 5737 5735 5734 5733 5732 5732 5732 5730 5729 5728 5727
5701 5703 5704 5706 5708 5709 5710 5711 5712 5714 5715 5716 5716 5717 5718 5718 5719 5720 5721 5722 5723 5723 5724 5725 5726 5727 5728 5729 5730 5732 5733 5733 5734 5735 5735 5736 5736 5736 5736 5737 5737 5738 5738 5738 5739 5739 5739 5739 5740 5740 5740 5740 5740 5740 5740 5740 5740 5740 5739 5739 5739 5739 5738 5737 5736 5736 5735 5734 5734 5733 5733 5733 5732 5731 5730 5729 5728 5727 5726 5726 5726 5724 5723 5723 5721
5697 5699 5700 5701 5703 5704 5706 5707 5709 5710 5711 5712 5713 5714 5714 5715 5716 5717 5718 5719 5720 5720 5721 5722 5723 5723 5724 5725 5727 5729 5729 5730 5730 5731 5731 5732 5732 5732 5732 5733 5733 5734 5734 5734 5734 5734 5734 5734 5734 5735 5735 5735 5735 5735 5735 5734 5734 5734 5734 5734 5734 5733 5733 5732 5731 5730 5729 5729 5728 5727 5726 5726 5726 5725 5724 5723 5722 5721 5719 5718 5717 5716 5715 5716 5716
5694 5695 5695 5697 5698 5699 5701 5703 5704 5706 5707 5708 5709 5711 5711 5712 5713 5714 5715 5715 5716 5717 5718 5719 5719 5720 5721 5722 5723 5725 5726 5726 5726 5727 5727 5728 5728 5728 5728 5729 5729 5730 5729 5729 5729 5729 5729 5729 5729 5729 5730 5729 5729 5729 5729 5728 5728 5728 5728 5728 5727 5727 5727 5727 5726 5724 5723 5723 5722 5721 5720 5719 5718 5718 5718 5717 5716 5714 5711 5710 5708 5706 5705 5706 5707
5690 5691 5692 5693 5694 5696 5697 5699 5700 5702 5703 5705 5706 5707 5708 5709 5710 5710 5711 5712 5712 5713 5714 5714 5715 5717 5718 5718 5719 5721 5721 5722 5722 5723 5723 5723 5724 5724 5725 5725 5725 5725 5725 5725 5725 5724 5724 5725 5725 5724 5723 5723 5723 5722 5722 5722 5722 5722 5721 5721 5721 5721 5721 5721 5720 5719 5717 5716 5716 5715 5714 5712 5711 5710 5709 5709 5708 5706 5703 5701 5700 5697 5696 5696 5697
5687 5688 5689 5691 5692 5693 5695 5696 5698 5699 5701 5702 5703 5704 5705 5706 5706 5707 5707 5708 5708 5709 5710 5711 5712 5713 5714 5715 5716 5716 5717 5717 5718 5718 5719 5719 5719 5720 5720 5720 5720 5721 5721 5720 5720 5719 5718 5720 5721 5719 5717 5717 5717 5716 5717 5716 5716 5716 5715 5714 5714 5714 5714 5714 5714 5712 5711 5709 5708 5708 5707 5705 5703 5702 5701 5701 5700 5698 5696 5694 5692 5689 5686 5687 5688
5685 5686 5687 5688 5689 5691 5692 5693 5694 5696 5697 5699 5700 5700 5701 5702 5702 5703 5704 5704 5705 5706 5707 5707 5708 5709 5710 5711 5712 5712 5712 5712 5713 5713 5714 5714 5715 5715 5715 5715 5715 5716 5716 5715 5715 5714 5713 5715 5716 5714 5712 5712 5712 5711 5710 5710 5710 5710 5708 5707 5707 5706 5705 5706 5705 5703 5702 5701 5700 5699 5698 5697 5695 5693 5692 5693 5692 5690 5688 5687 5685 5682 5677 5676 5677
5682 5683 5684 5685 5686 5687 5688 5689 5691 5692 5693 5694 5695 5696 5697 5698 5698 5699 5700 5700 5701 5702 5703 5704 5705 5706 5707 5707 5708 5708 5708 5709 5709 5709 5709 5710 5710 5710 5711 5711 5711 5711 5711 5711 5710 5709 5708 5709 5709 5708 5707 5708 5707 5705 5705 5704 5703 5703 5702 5700 5699 5698 5697 5697 5696 5694 5693 5693 5691 5690 5690 5688 5686 5684 5682 5682 5681 5680 5680 5679 5676 5673 5670 5667 5666
5679 5679 5680 5681 5683 5684 5684 5685 5687 5688 5689 5690 5691 5692 5693 5693 5694 5695 5696 5696 5697 5698 5699 5700 5701 5701 5702 5703 5703 5704 5704 5705 5705 5705 5705 5705 5705 5705 5705 5705 5705 5705 5705 5705 5705 5704 5703 5702 5702 5701 5701 5701 5700 5699 5698 5698 5696 5695 5694 5692 5691 5690 5689 5688 5686 5685 5684 5683 5682 5681 5680 5679 5677 5675 5673 5671 5669 5668 5668 5669 5667 5664 5661 5659 5658
5676 5677 5677 5678 5679 5680 5681 5682 5683 5684 5685 5685 5686 5687 5688 5689 5690 5691 5691 5692 5693 5693 5694 5695 5696 5697 5697 5698 5698 5698 5699 5700 5700 5699 5699 5699 5699 5699 5699 5699 5699 5698 5698 5698 5698 5697 5696 5695 5694 5694 5694 5693 5692 5691 5690 5689 5688 5686 5685 5683 5682 5681 5679 5678 5677 5676 5674 5673 5672 5670 5669 5668 5666 5664 5662 5660 5659 5656 5654 5656 5657 5654 5652 5651 5651
5673 5674 5674 5675 5675 5676 5677 5678 5679 5680 5681 5681 5682 5683 5684 5685 5686 5686 5687 5688 5688 5689 5690 5690 5691 5691 5692 5692 5692 5692 5693 5695 5694 5692 5692 5693 5693 5693 5693 5692 5692 5691 5691 5691 5691 5690 5689 5687 5686 5685 5685 5684 5683 5682 5681 5680 5678 5677 5675 5674 5672 5671 5669 5667 5666 5665 5664 5663 5661 5659 5657 5656 5654 5652 5650 5649 5648 5644 5641 5643 5645 5644 5641 5641 5640
5669 5670 5671 5671 5671 5672 5673 5674 5675 5676 5676 5677 5678 5678 5679 5680 5681 5681 5682 5683 5683 5684 5685 5685 5686 5686 5686 5687 5687 5687 5688 5689 5688 5687 5687 5687 5687 5686 5686 5686 5685 5684 5683 5683 5683 5682 5681 5680 5678 5677 5676 5675 5674 5673 5672 5671 5670 5668 5667 5665 5663 5661 5660 5658 5656 5654 5653 5652 5650 5648 5646 5644 5642 5641 5639 5637 5636 5634 5630 5631 5633 5632 5630 5629 5628
5665 5665 5666 5666 5667 5667 5668 5669 5670 5671 5671 5672 5673 5673 5674 5675 5675 5676 5676 5677 5677 5678 5679 5679 5679 5679 5680 5680 5680 5680 5682 5682 5681 5681 5681 5681 5680 5680 5680 5679 5678 5677 5677 5676 5675 5674 5673 5672 5671 5670 5669 5667 5666 5665 5663 5662 5660 5659 5657 5655 5653 5650 5648 5646 5644 5642 5641 5641 5639 5637 5635 5633 5631 5630 5628 5626 5626 5623 5620 5621 5622 5620 5618 5618 5617
5660 5660 5661 5662 5662 5663 5663 5664 5664 5665 5666 5667 5667 5668 5668 5669 5670 5670 5671 5671 5671 5672 5672 5673 5673 5673 5673 5674 5673 5673 5674 5675 5675 5674 5674 5674 5673 5673 5673 5672 5671 5670 5670 5669 5668 5666 5666 5665 5663 5662 5661 5659 5658 5656 5654 5653 5651 5649 5647 5645 5642 5639 5637 5635 5632 5631 5630 5629 5628 5625 5623 5621 5621 5619 5617 5615 5615 5612 5611 5612 5612 5609 5607 5607 5608
5655 5656 5656 5657 5657 5658 5658 5659 5659 5660 5660 5661 5661 5662 5663 5663 5664 5664 5665 5665 5666 5666 5667 5667 5667 5667 5667 5668 5667 5667 5668 5668 5668 5668 5668 5667 5667 5666 5665 5665 5664 5662 5662 5661 5660 5658 5657 5656 5655 5653 5652 5650 5649 5647 5645 5642 5640 5638 5636 5633 5631 5628 5626 5623 5621 5620 5618 5617 5616 5615 5612 5611 5610 5609 5606 5605 5604 5603 5602 5602 5601 5599 5598 5598 5599
5650 5650 5651 5652 5652 5653 5653 5654 5654 5655 5655 5655 5656 5657 5657 5658 5658 5659 5659 5660 5660 5661 5661 5661 5661 5661 5662 5662 5662 5661 5661 5661 5661 5661 5661 5660 5659 5659 5658 5657 5656 5655 5654 5652 5651 5649 5649 5647 5645 5643 5642 5640 5638 5636 5634 5631 5629 5627 5625 5622 5620 5617 5615 5613 5611 5610 5608 5607 5606 5605 5603 5601 5600 5599 5597 5595 5594 5594 5594 5594 5592 5591 5590 5590 5590
5644 5645 5646 5646 5647 5647 5648 5649 5649 5649 5650 5650 5651 5651 5652 5653 5653 5653 5654 5655 5655 5655 5655 5656 5655 5656 5656 5656 5656 5655 5655 5654 5654 5654 5653 5652 5652 5651 5649 5648 5647 5646 5645 5643 5641 5640 5638 5637 5635 5633 5631 5629 5627 5626 5624 5622 5619 5617 5615 5613 5611 5608 5606 5604 5602 5601 5600 5598 5596 5595 5594 5592 5591 5590 5588 5587 5585 5585 5585 5585 5585 5584 5583 5582 5583
5639 5639 5640 5641 5641 5642 5642 5643 5643 5643 5644 5645 5645 5646 5646 5647 5647 5647 5648 5648 5648 5649 5649 5649 5649 5649 5648 5648 5648 5647 5647 5647 5646 5646 5645 5644 5644 5642 5641 5640 5639 5637 5636 5635 5633 5630 5629 5627 5625 5623 5621 5620 5618 5616 5615 5613 5610 5608 5607 5605 5602 5600 5598 5596 5594 5592 5591 5590 5588 5587 5585 5584 5582 5581 5580 5579 5577 5576 5576 5576 5576 5576 5575 5575 5575
5633 5634 5634 5635 5635 5636 5637 5637 5637 5637 5638 5639 5639 5640 5640 5641 5641 5641 5641 5641 5641 5641 5641 5641 5641 5641 5641 5640 5640 5640 5639 5639 5639 5638 5638 5637 5636 5635 5634 5632 5631 5629 5628 5626 5625 5622 5621 5619 5617 5615 5613 5611 5610 5608 5606 5604 5602 5601 5599 5597 5595 5592 5590 5589 5587 5585 5584 5582 5580 5579 5577 5576 5574 5573 5572 5570 5569 5568 5568 5567 5567 5567 5567 5567 5567
5628 5628 5629 5629 5630 5630 5630 5630 5631 5631 5632 5632 5633 5633 5634 5634 5634 5634 5634 5634 5634 5634 5634 5634 5634 5634 5634 5633 5633 5633 5632 5632 5631 5631 5630 5629 5628 5627 5626 5624 5623 5621 5620 5618 5617 5615 5613 5611 5609 5607 5605 5604 5602 5601 5599 5597 5595 5593 5592 5590 5588 5586 5584 5582 5580 5579 5577 5575 5573 5571 5569 5568 5566 5564 5563 5562 5560 5560 5559 5559 5559 5559 5558 5558 5559
5621 5622 5623 5624 5624 5625 5625 5624 5625 5625 5626 5626 5627 5627 5628 5628 5629 5628 5628 5628 5628 5628 5628 5628 5628 5627 5627 5627 5626 5626 5625 5625 5624 5623 5622 5622 5621 5619 5618 5617 5615 5614 5613 5611 5610 5608 5606 5604 5603 5601 5599 5598 5596 5594 5592 5590 5589 5587 5585 5583 5581 5580 5578 5576 5574 5572 5570 5568 5565 5563 5561 5559 5557 5555 5554 5552 5551 5550 5549 5549 5549 5549 5549 5549 5551
5614 5615 5616 5617 5617 5618 5618 5618 5619 5619 5620 5620 5621 5622 5622 5623 5623 5623 5623 5623 5623 5623 5622 5622 5622 5621 5620 5620 5620 5619 5618 5618 5617 5617 5616 5615 5614 5613 5612 5610 5609 5608 5607 5605 5604 5602 5600 5598 5597 5595 5593 5592 5590 5588 5587 5585 5583 5581 5579 5577 5575 5573 5571 5568 5566 5564 5562 5560 5557 5555 5552 5550 5548 5546 5544 5543 5541 5541 5540 5540 5540 5540 5540 5541 5542
5609 5609 5610 5610 5611 5611 5612 5612 5612 5612 5613 5614 5614 5615 5616 5616 5616 5617 5617 5617 5617 5617 5616 5616 5616 5615 5614 5614 5613 5613 5612 5612 5612 5611 5610 5610 5609 5608 5607 5605 5604 5603 5601 5600 5598 5597 5595 5593 5592 5590 5588 5587 5585 5583 5581 5579 5577 5575 5573 5571 5568 5566 5563 5561 5559 5556 5554 5552 5549 5546 5544 5541 5539 5537 5535 5533 5532 5532 5532 5532 5532 5533 5533 5534 5536
5603 5604 5604 5604 5605 5605 5605 5606 5606 5606 5607 5607 5608 5608 5609 5609 5609 5609 5610 5610 5610 5610 5610 5609 5609 5609 5609 5608 5607 5607 5607 5607 5606 5606 5605 5604 5604 5603 5602 5601 5599 5598 5596 5595 5593 5592 5590 5588 5587 5585 5583 5582 5580 5578 5576 5574 5571 5569 5567 5564 5562 5559 5556 5554 5552 5549 5547 5545 5542 5540 5537 5534 5531 5529 5527 5526 5525 5525 5526 5526 5527 5528 5529 5530 5532
5598 5598 5598 5599 5599 5600 5600 5600 5600 5600 5601 5601 5602 5602 5602 5603 5603 5603 5603 5603 5603 5603 5603 5603 5603 5603 5603 5602 5602 5602 5602 5602 5601 5601 5600 5599 5599 5598 5597 5595 5594 5593 5591 5590 5588 5587 5585 5584 5582 5580 5578 5577 5574 5572 5570 5568 5565 5563 5560 5558 5555 5552 5550 5548 5546 5544 5542 5540 5537 5534 5531 5528 5526 5524 5523 5522 5522 5522 5523 5524 5524 5525 5526 5528 5529
5592 5592 5593 5593 5594 5594 5594 5595 5595 5595 5596 5596 5596 5597 5597 5597 5597 5597 5597 5598 5598 5598 5598 5598 5598 5598 5598 5598 5597 5597 5597 5597 5596 5595 5595 5594 5593 5592 5591 5590 5589 5587 5586 5585 5583 5582 5580 5578 5577 5575 5573 5571 5569 5567 5564 5562 5559 5557 5555 5552 5549 5547 5545 5543 5542 5540 5538 5536 5534 5530 5527 5525 5524 5523 5522 5521 5521 5521 5522 5522 5523 5524 5525 5526 5527
5585 5586 5587 5587 5588 5589 5589 5589 5590 5590 5590 5591 5591 5592 5592 5592 5592 5593 5593 5593 5593 5593 5593 5593 5593 5593 5593 5593 5592 5592 5592 5591 5591 5590 5590 5589 5588 5587 5586 5585 5584 5582 5581 5580 5578 5577 5575 5573 5571 5569 5568 5566 5564 5561 5559 5557 5555 5552 5549 5546 5544 5542 5541 5540 5539 5537 5535 5533 5531 5528 5526 5524 5523 5522 5522 5521 5521 5521 5521 5521 5522 5522 5524 5525 5526
5578 5579 5581 5581 5582 5583 5583 5584 5584 5585 5585 5586 5586 5587 5587 5587 5587 5588 5588 5588 5588 5588 5588 5588 5588 5588 5588 5587 5587 5587 5587 5586 5586 5585 5585 5584 5583 5582 5581 5580 5579 5578 5577 5575 5574 5572 5570 5568 5566 5564 5563 5561 5559 5557 5555 5553 5551 5548 5545 5542 5541 5539 5539 5538 5536 5535 5533 5531 5528 5526 5525 5523 5522 5521 5520 5520 5520 5520 5520 5520 5521 5521 5522 5523 5524
5571 5573 5574 5575 5576 5576 5577 5578 5579 5580 5580 5580 5581 5582 5582 5582 5582 5583 5583 5583 5583 5583 5583 5583 5583 5583 5583 5583 5583 5583 5582 5582 5582 5581 5580 5580 5579 5578 5577 5576 5574 5573 5572 5570 5569 5567 5565 5563 5561 5560 5558 5557 5555 5553 5551 5549 5547 5544 5541 5539 5538 5537 5536 5535 5534 5532 5530 5528 5526 5524 5523 5522 5520 5519 5518 5518 5518 5518 5519 5519 5520 5520 5521 5522 5523
5566 5567 5568 5569 5570 5571 5572 5573 5574 5574 5575 5576 5576 5576 5576 5577 5577 5577 5578 5578 5578 5578 5578 5578 5578 5579 5579 5579 5579 5578 5578 5578 5578 5577 5576 5576 5575 5574 5573 5572 5570 5569 5567 5565 5563 5562 5560 5559 5557 5556 5555 5553 5552 5550 5549 5546 5544 5542 5539 5537 5536 5535 5534 5533 5531 5530 5528 5526 5524 5522 5520 5519 5518 5517 5516 5516 5516 5517 5517 5518 5518 5519 5519 5520 5521
5560 5561 5563 5564 5565 5566 5567 5568 5568 5569 5570 5571 5571 5571 5571 5572 5572 5573 5573 5573 5573 5573 5574 5574 5574 5574 5575 5575 5575 5574 5574 5574 5574 5573 5573 5572 5571 5570 5569 5567 5566 5564 5562 5560 5558 5557 5556 5554 5553 5552 5551 5550 5549 5548 5546 5544 5542 5540 5538 5536 5534 5533 5532 5531 5529 5528 5526 5524 5522 5520 5519 5517 5516 5516 5515 5515 5515 5515 5516 5516 5517 5517 5518 5518 5519
5556 5557 5558 5559 5560 5560 5561 5562 5563 5564 5565 5565 5566 5566 5566 5567 5568 5568 5569 5569 5569 5570 5570 5570 5571 5571 5571 5571 5571 5571 5571 5570 5570 5570 5569 5568 5567 5566 5564 5563 5561 5559 5557 5555 5554 5552 5552 5551 5550 5549 5548 5547 5546 5545 5543 5542 5540 5538 5536 5534 5532 5531 5529 5528 5527 5526 5524 5522 5520 5518 5517 5516 5515 5515 5514 5514 5514 5514 5514 5515 5515 5516 5516 5517 5517
5551 5552 5553 5554 5555 5556 5557 5557 5558 5559 5560 5561 5561 5562 5562 5563 5563 5564 5565 5565 5566 5566 5567 5567 5567 5567 5567 5567 5567 5567 5567 5567 5567 5566 5565 5564 5563 5561 5560 5558 5556 5554 5552 5551 5550 5549 5548 5547 5546 5546 5545 5544 5543 5542 5541 5539 5538 5536 5534 5533 5530 5528 5527 5525 5524 5523 5522 5520 5519 5517 5516 5515 5514 5514 5513 5513 5513 5513 5513 5513 5514 5514 5515 5515 5516
5547 5547 5548 5549 5550 5551 5552 5553 5554 5555 5555 5556 5557 5557 5558 5559 5559 5560 5561 5562 5562 5563 5563 5564 5564 5564 5564 5564 5564 5564 5564 5563 5563 5562 5561 5560 5558 5557 5555 5553 5551 5550 5548 5547 5546 5545 5545 5544 5543 5542 5542 5541 5540 5539 5538 5537 5535 5534 5532 5531 5529 5526 5525 5523 5522 5521 5520 5519 5517 5516 5514 5513 5513 5512 5512 5512 5512 5512 5512 5512 5512 5512 5513 5513 5514
5543 5543 5544 5545 5546 5547 5548 5549 5550 5550 5551 5552 5553 5554 5554 5555 5556 5557 5557 5558 5559 5559 5560 5560 5561 5561 5561 5561 5561 5561 5560 5560 5559 5558 5557 5556 5554 5552 5551 5549 5547 5546 5545 5544 5543 5542 5541 5541 5540 5539 5538 5538 5537 5536 5535 5534 5533 5531 5530 5528 5527 5525 5523 5521 5520 5519 5518 5517 5516 5514 5513 5512 5511 5511 5511 5511 5510 5510 5510 5510 5511 5511 5511 5512 5512